Weather History for Georgetown, SC

Change the Weather History Date:

Saturday, March 3, 2012

  Actual Average Record
Temperature  
Mean Temperature 64 °F -  
Max Temperature 69 °F 66 °F 73 °F (2014)
Min Temperature 59 °F 42 °F 32 °F (2013)
Degree Days  
Heating Degree Days 1    
Growing Degree Days 14 (Base 50)    
Moisture  
Dew Point 58 °F    
Average Humidity 82    
Maximum Humidity 94    
Minimum Humidity 73    
Precipitation  
Precipitation 0.83 in - - ()
Sea Level Pressure  
Sea Level Pressure 29.79 in    
Wind  
Wind Speed 11 mph (SW)    
Max Wind Speed 17 mph    
Max Gust Speed 24 mph    
Visibility 9 miles    
Events Rain , Thunderstorm    
Averages and records for this station are not official NWS values.
T = Trace of Precipitation, MM = Missing Value Source: NWS Daily Summary

Daily Weather History Graph

Daily Weather History Graph

Search for Another Location

Airport:

Trip Planner

Search our weather history database for the weather conditions in past years. The results will help you decide how hot, cold, wet, or windy it might be!

Date:

Astronomy

Mar. 03, 2012 Rise Set
Actual Time 6:42 AM EST 6:16 PM EST
Civil Twilight 6:17 AM EST 6:41 PM EST
Nautical Twilight 5:48 AM EST 7:09 PM EST
Astronomical Twilight 5:20 AM EST 7:38 PM EST
Moon 1:36 PM EST (3/3) 3:05 AM EST (3/3)
Length of Visible Light 12h 23m
Length of Day
11h 33m
Waxing Gibbous, 75% of the Moon is Illuminated
Mar 3
Waxing Gibbous
Mar 8
Full
Mar 14
Last Quarter
Mar 22
New
Mar 30
First Quarter

Hourly Weather History & Observations

Time (EST) Temp. Dew Point Humidity Pressure Visibility Wind Dir Wind Speed Gust Speed Precip Events Conditions
12:15 AM 66.2 °F 59.0 °F 78% 29.82 in 10.0 mi SSW 16.1 mph 24.2 mph N/A   Clear
12:35 AM 68.0 °F 59.0 °F 73% 29.82 in 10.0 mi SSW 17.3 mph 20.7 mph N/A   Clear
12:55 AM 68.0 °F 59.0 °F 73% 29.81 in 10.0 mi SSW 15.0 mph 21.9 mph N/A   Clear
1:15 AM 68.0 °F 60.8 °F 78% 29.81 in 10.0 mi SSW 16.1 mph 23.0 mph N/A   Clear
1:35 AM 68.0 °F 60.8 °F 78% 29.80 in 10.0 mi SSW 15.0 mph 23.0 mph N/A   Clear
1:55 AM 68.0 °F 59.0 °F 73% 29.80 in 10.0 mi SSW 13.8 mph 18.4 mph N/A   Clear
2:15 AM 68.0 °F 59.0 °F 73% 29.79 in 10.0 mi SSW 12.7 mph 19.6 mph N/A   Clear
2:35 AM 68.0 °F 59.0 °F 73% 29.78 in 10.0 mi SSW 11.5 mph 17.3 mph N/A   Clear
2:55 AM 68.0 °F 60.8 °F 78% 29.77 in 10.0 mi SSW 12.7 mph 18.4 mph N/A   Clear
3:15 AM 68.0 °F 59.0 °F 73% 29.77 in 10.0 mi SSW 15.0 mph 21.9 mph N/A   Clear
3:35 AM 68.0 °F 59.0 °F 73% 29.76 in 10.0 mi SSW 12.7 mph 18.4 mph N/A   Clear
3:55 AM 68.0 °F 59.0 °F 73% 29.75 in 10.0 mi SSW 13.8 mph - N/A Thunderstorm Clear
4:15 AM 66.2 °F 59.0 °F 78% 29.75 in 10.0 mi SSW 15.0 mph 19.6 mph N/A   Clear
4:35 AM 68.0 °F 59.0 °F 73% 29.77 in 10.0 mi SW 13.8 mph 19.6 mph N/A   Clear
4:55 AM 68.0 °F 59.0 °F 73% 29.76 in 10.0 mi SSW 12.7 mph 18.4 mph N/A   Clear
5:35 AM 66.2 °F 59.0 °F 78% 29.77 in 10.0 mi SSW 13.8 mph - N/A Thunderstorm Clear
5:55 AM 66.2 °F 59.0 °F 78% 29.77 in 10.0 mi SSW 11.5 mph - N/A Thunderstorm Clear
6:15 AM 66.2 °F 59.0 °F 78% 29.78 in 10.0 mi SSW 12.7 mph - N/A   Scattered Clouds
6:35 AM 66.2 °F 59.0 °F 78% 29.79 in 10.0 mi SW 10.4 mph - N/A   Scattered Clouds
6:55 AM 66.2 °F 59.0 °F 78% 29.81 in 10.0 mi WSW 15.0 mph 20.7 mph N/A   Clear
7:15 AM 68.0 °F 59.0 °F 73% 29.81 in 10.0 mi SW 13.8 mph 18.4 mph N/A   Scattered Clouds
7:35 AM 66.2 °F 59.0 °F 78% 29.81 in 10.0 mi SW 13.8 mph 18.4 mph N/A   Scattered Clouds
7:55 AM 68.0 °F 59.0 °F 73% 29.81 in 10.0 mi SW 12.7 mph - N/A   Scattered Clouds
8:15 AM 64.4 °F 60.8 °F 88% 29.80 in 10.0 mi SSW 9.2 mph - 0.01 in Rain Light Rain
8:35 AM 64.4 °F 60.8 °F 88% 29.80 in 10.0 mi SSW 5.8 mph - 0.02 in   Mostly Cloudy
8:55 AM 64.4 °F 62.6 °F 94% 29.80 in 10.0 mi SSW 5.8 mph - 0.02 in   Scattered Clouds
9:15 AM 66.2 °F 62.6 °F 88% 29.81 in 10.0 mi NNW 4.6 mph - N/A   Mostly Cloudy
9:35 AM 66.2 °F 60.8 °F 83% 29.81 in 10.0 mi Calm Calm - N/A   Overcast
9:55 AM 68.0 °F 60.8 °F 78% 29.81 in 10.0 mi Calm Calm - N/A   Overcast
10:15 AM 69.8 °F 62.6 °F 78% 29.81 in 10.0 mi Calm Calm - N/A   Overcast
10:35 AM 69.8 °F 62.6 °F 78% 29.81 in 10.0 mi Calm Calm - N/A   Overcast
10:55 AM 66.2 °F 59.0 °F 78% 29.82 in 10.0 mi NW 12.7 mph 16.1 mph N/A   Overcast
11:15 AM 64.4 °F 59.0 °F 83% 29.82 in 10.0 mi NW 6.9 mph - N/A Rain Light Rain
11:35 AM 62.6 °F 59.0 °F 88% 29.81 in 10.0 mi Calm Calm - 0.01 in Rain Rain
11:55 AM 62.6 °F 59.0 °F 88% 29.85 in 3.0 mi West 12.7 mph - 0.12 in Rain Heavy Rain
12:15 PM 60.8 °F 57.2 °F 88% 29.84 in 5.0 mi WNW 8.1 mph 20.7 mph 0.08 in Rain Light Rain
12:35 PM 60.8 °F 55.4 °F 82% 29.83 in 7.0 mi West 4.6 mph - 0.12 in Rain Light Rain
12:55 PM 60.8 °F 55.4 °F 82% 29.83 in 10.0 mi West 4.6 mph - 0.14 in Rain Light Rain
1:15 PM 59.0 °F 55.4 °F 88% 29.83 in 7.0 mi SW 3.5 mph - 0.02 in Rain Rain
1:35 PM 60.8 °F 55.4 °F 82% 29.81 in 5.0 mi WSW 4.6 mph - 0.06 in Rain Rain
1:55 PM 60.8 °F 55.4 °F 82% 29.80 in 10.0 mi WSW 3.5 mph - 0.08 in Rain Light Rain
2:15 PM 59.0 °F 55.4 °F 88% 29.81 in 7.0 mi SSW 5.8 mph - 0.02 in Rain Light Rain
2:35 PM 59.0 °F 55.4 °F 88% 29.80 in 7.0 mi South 5.8 mph - 0.06 in Rain Light Rain
2:55 PM 59.0 °F 55.4 °F 88% 29.80 in 7.0 mi South 8.1 mph - 0.08 in Rain Rain
3:15 PM 59.0 °F 55.4 °F 88% 29.79 in 5.0 mi South 6.9 mph - 0.06 in Rain Rain
3:35 PM 59.0 °F 55.4 °F 88% 29.77 in 7.0 mi SSE 4.6 mph - 0.09 in Rain Light Rain
3:55 PM 59.0 °F 55.4 °F 88% 29.78 in 7.0 mi Calm Calm - 0.12 in Rain Rain
4:15 PM 59.0 °F 55.4 °F 88% 29.78 in 5.0 mi SSW 3.5 mph - 0.03 in Rain Light Rain
4:35 PM 59.0 °F 55.4 °F 88% 29.78 in 5.0 mi SSW 3.5 mph - 0.08 in Rain Rain
4:55 PM 59.0 °F 55.4 °F 88% 29.78 in 3.0 mi Calm Calm - 0.12 in Rain Rain
5:15 PM 59.0 °F 55.4 °F 88% 29.78 in 5.0 mi Calm Calm - 0.03 in Rain Rain
5:35 PM 59.0 °F 55.4 °F 88% 29.78 in 7.0 mi Calm Calm - 0.06 in Rain Rain
5:55 PM 59.0 °F 55.4 °F 88% 29.75 in 4.0 mi ESE 3.5 mph - 0.11 in Rain Rain
6:15 PM 59.0 °F 55.4 °F 88% 29.75 in 7.0 mi Calm Calm - 0.03 in Rain Light Rain
6:35 PM 59.0 °F 55.4 °F 88% 29.75 in 10.0 mi Calm Calm - 0.03 in Rain Light Rain
6:55 PM 59.0 °F 55.4 °F 88% 29.74 in 10.0 mi Calm Calm - 0.04 in Rain Light Rain
7:15 PM 59.0 °F 55.4 °F 88% 29.72 in 10.0 mi SE 3.5 mph - N/A Rain Light Rain
7:35 PM 59.0 °F 55.4 °F 88% 29.74 in 10.0 mi SSE 4.6 mph - N/A Rain Rain
7:55 PM 59.0 °F 55.4 °F 88% 29.76 in 7.0 mi West 4.6 mph - 0.02 in Rain Light Rain
8:15 PM 59.0 °F 55.4 °F 88% 29.76 in 10.0 mi SSW 4.6 mph - 0.02 in Rain Light Rain
8:35 PM 59.0 °F 55.4 °F 88% 29.75 in 7.0 mi WSW 3.5 mph - 0.04 in Rain Rain
8:55 PM 59.0 °F 55.4 °F 88% 29.76 in 7.0 mi SSW 3.5 mph - 0.06 in Rain Light Rain
9:15 PM 59.0 °F 55.4 °F 88% 29.75 in 5.0 mi Calm Calm - 0.02 in Rain Light Rain
9:35 PM 59.0 °F 55.4 °F 88% 29.75 in 10.0 mi Calm Calm - 0.04 in Rain Rain
9:55 PM 59.0 °F 55.4 °F 88% 29.74 in 7.0 mi Calm Calm - 0.06 in Rain Rain
10:15 PM 59.0 °F 55.4 °F 88% 29.74 in 4.0 mi Calm Calm - 0.04 in Rain Rain
10:35 PM 59.0 °F 55.4 °F 88% 29.73 in 5.0 mi Calm Calm - 0.13 in Rain Rain
10:55 PM 59.0 °F 55.4 °F 88% 29.74 in 7.0 mi West 3.5 mph - 0.18 in Rain Heavy Rain
11:15 PM 59.0 °F 55.4 °F 88% 29.73 in 7.0 mi WNW 4.6 mph - 0.04 in Rain Rain
11:55 PM 57.2 °F 55.4 °F 94% 29.72 in 5.0 mi West 3.5 mph - 0.22 in Rain Heavy Rain